Location: Casone le Fosse
(44.6547°N, 12.1103°E)
Time: 03:36:45
(UTC+00:00)

Cosmos 1331 Rocket - Pass Details

Date: 29 October 2020
Orbit: 749 x 778 km, 74.0° (Epoch: 01 December)

Event Time Altitude Azimuth Distance (km) Brightness Sun altitude
Rises 16:22:05 0° 199° (SSW) 3,188 7.7 -3.9°
Reaches altitude 10° 16:24:26 10° 199° (SSW) 2,265 7.0 -4.3°
Maximum altitude 16:29:34 90° 122° (ESE) 756 4.0 -5.2°
Drops below altitude 10° 16:34:45 10° 21° (NNE) 2,279 6.1 -6.1°
Sets 16:37:07 0° 22° (NNE) 3,209 6.9 -6.5°
